Tracking 19219 objects as of 20-Jul-2018
HD Live streaming from Space Station
objects crossing your sky now

FENGYUN 1C DEB

Track FENGYUN 1C DEB now!
10-day predictions


NORAD ID: 35247
Int'l Code: 1999-025DRF
Perigee: 765.6 km
Apogee: 859.5 km
Inclination: 98.9 °
Period: 101.0 minutes
Semi major axis: 7183 km
RCS: 0.003 m2 (small)
Launch date: May 10, 1999
Source: People's Republic of China (PRC)
Launch site: Taiyaun Space Center, China (TSC)

Note: This is SATELLITE DEBRIS
aabbcc
Your satellite tracking list
Your tracking list is empty




NASA's NSSDC Master Catalog

Two Line Element Set (TLE):
1 35247U 99025DRF 18200.83257608  .00000233  00000-0  11444-3 0  9991
2 35247  98.8926 222.8988 0065342  29.4825 331.0014 14.25922771616795
Source of the keplerian elements: AFSPC